CHH7113 ZGGG-ZSNJ

Flight info

Callsign CHH7113
Flight time 1h 35m
Altitude 24600
Route BOVMA9 BOVMA W41 DOPKU G471 PLT W19 RUNEK DCT KHN DCT NCH DCT P262 H2 HFE W51 LEGIV W164 OREVO
Aircraft A21N/M-SDE2E3FGHIRWXY/LB1

Departure

Time 2026-04-21 07:54
Airport Guangzhou Baiyun International Airport (ZGGG)

Arrival

Time 2026-04-21 09:29
Airport Nanjing Lukou International Airport (ZSNJ)
Time Latitude Longitude Altitude Speed Heading
2026-04-21 07:08 23.40010 113.29542 64 ft 0 kts 194°
2026-04-21 07:38 23.40023 113.29545 59 ft 4 kts 194°
2026-04-21 07:39 23.40046 113.29552 56 ft 4 kts 212°
2026-04-21 07:39 23.40058 113.29571 59 ft 4 kts 270°
2026-04-21 07:39 23.40056 113.29593 57 ft 1 kts 283°
2026-04-21 07:39 23.40055 113.29597 56 ft 0 kts 283°
2026-04-21 07:44 23.40057 113.29587 56 ft 2 kts 283°
2026-04-21 07:44 23.40063 113.29562 55 ft 4 kts 283°
2026-04-21 07:44 23.40071 113.29525 64 ft 6 kts 283°
2026-04-21 07:45 23.40082 113.29476 64 ft 8 kts 284°
2026-04-21 07:45 23.40097 113.29412 64 ft 9 kts 286°
2026-04-21 07:45 23.40160 113.29392 57 ft 11 kts 15°
2026-04-21 07:45 23.40241 113.29414 60 ft 13 kts 14°
2026-04-21 07:46 23.40332 113.29439 56 ft 14 kts 14°
2026-04-21 07:46 23.40434 113.29467 62 ft 16 kts 14°
2026-04-21 07:46 23.40542 113.29496 60 ft 11 kts 13°
2026-04-21 07:46 23.40583 113.29507 59 ft 7 kts 13°
2026-04-21 07:47 23.40638 113.29524 56 ft 9 kts 30°
2026-04-21 07:47 23.40653 113.29593 64 ft 11 kts 104°
2026-04-21 07:47 23.40633 113.29680 57 ft 13 kts 104°
2026-04-21 07:47 23.40610 113.29780 64 ft 14 kts 104°
2026-04-21 07:48 23.40585 113.29891 64 ft 16 kts 104°
2026-04-21 07:48 23.40556 113.30015 64 ft 18 kts 104°
2026-04-21 07:48 23.40526 113.30149 64 ft 19 kts 104°
2026-04-21 07:48 23.40493 113.30290 64 ft 20 kts 104°
2026-04-21 07:49 23.40460 113.30440 62 ft 21 kts 104°
2026-04-21 07:49 23.40424 113.30597 64 ft 22 kts 104°
2026-04-21 07:49 23.40394 113.30727 60 ft 17 kts 104°
2026-04-21 07:49 23.40364 113.30855 64 ft 18 kts 104°
2026-04-21 07:50 23.40337 113.30976 60 ft 16 kts 104°
2026-04-21 07:50 23.40321 113.31047 62 ft 8 kts 93°
2026-04-21 07:50 23.40366 113.31088 59 ft 10 kts 14°
2026-04-21 07:50 23.40440 113.31108 57 ft 12 kts 14°
2026-04-21 07:51 23.40525 113.31131 59 ft 13 kts 13°
2026-04-21 07:51 23.40621 113.31156 59 ft 15 kts 13°
2026-04-21 07:51 23.40729 113.31186 59 ft 17 kts 13°
2026-04-21 07:51 23.40845 113.31217 60 ft 14 kts 14°
2026-04-21 07:52 23.40906 113.31237 58 ft 7 kts 36°
2026-04-21 07:52 23.40912 113.31297 59 ft 9 kts 103°
2026-04-21 07:52 23.40898 113.31371 63 ft 11 kts 103°
2026-04-21 07:52 23.40851 113.31419 58 ft 11 kts 183°
2026-04-21 07:53 23.40824 113.31413 57 ft 0 kts 194°
2026-04-21 07:53 23.40796 113.31405 58 ft 23 kts 194°
2026-04-21 07:53 23.40389 113.31296 54 ft 95 kts 194°
2026-04-21 07:53 23.39546 113.31069 58 ft 152 kts 194°
2026-04-21 07:54 23.38392 113.30759 284 ft 176 kts 193°
2026-04-21 07:54 23.37226 113.30440 996 ft 172 kts 193°
2026-04-21 07:54 23.36083 113.30132 1767 ft 166 kts 191°
2026-04-21 07:54 23.34957 113.29843 2441 ft 170 kts 192°
2026-04-21 07:55 23.33726 113.29510 2803 ft 196 kts 193°
2026-04-21 07:55 23.32289 113.29122 2947 ft 224 kts 192°
2026-04-21 07:55 23.30771 113.28711 3031 ft 225 kts 192°
2026-04-21 07:55 23.29222 113.28439 3660 ft 229 kts 182°
2026-04-21 07:56 23.27623 113.28412 4520 ft 231 kts 181°
2026-04-21 07:56 23.26003 113.28411 5351 ft 234 kts 182°
2026-04-21 07:56 23.24354 113.28405 6058 ft 243 kts 183°
2026-04-21 07:56 23.22610 113.28392 6560 ft 257 kts 184°
2026-04-21 07:57 23.20792 113.28375 7209 ft 265 kts 184°
2026-04-21 07:57 23.18929 113.28323 7881 ft 270 kts 188°
2026-04-21 07:57 23.17065 113.28004 8651 ft 273 kts 191°
2026-04-21 07:57 23.15139 113.27963 9421 ft 282 kts 177°
2026-04-21 07:58 23.13207 113.28484 10108 ft 294 kts 164°
2026-04-21 07:58 23.11342 113.29585 10452 ft 319 kts 147°
2026-04-21 07:58 23.09804 113.31451 10717 ft 348 kts 124°
2026-04-21 07:58 23.08929 113.33993 10971 ft 374 kts 103°
2026-04-21 07:59 23.08851 113.36882 11227 ft 395 kts 84°
2026-04-21 07:59 23.09636 113.39785 11578 ft 408 kts 64°
2026-04-21 07:59 23.11196 113.42370 12153 ft 412 kts 51°
2026-04-21 07:59 23.12986 113.44823 12740 ft 417 kts 51°
2026-04-21 08:00 23.14718 113.47379 13298 ft 422 kts 54°
2026-04-21 08:00 23.16375 113.50030 13846 ft 426 kts 56°
2026-04-21 08:00 23.17996 113.52740 14335 ft 429 kts 56°
2026-04-21 08:00 23.19610 113.55488 14818 ft 433 kts 56°
2026-04-21 08:01 23.21234 113.58250 15323 ft 435 kts 56°
2026-04-21 08:01 23.22866 113.61029 15844 ft 437 kts 56°
2026-04-21 08:01 23.24505 113.63820 16339 ft 439 kts 56°
2026-04-21 08:02 23.27800 113.69442 17276 ft 443 kts 56°
2026-04-21 08:02 23.29455 113.72279 17739 ft 445 kts 56°
2026-04-21 08:02 23.31124 113.75130 18181 ft 448 kts 56°
2026-04-21 08:02 23.32777 113.77951 18588 ft 449 kts 56°
2026-04-21 08:03 23.34458 113.80826 18988 ft 451 kts 56°
2026-04-21 08:03 23.36145 113.83708 19372 ft 453 kts 56°
2026-04-21 08:03 23.37838 113.86606 19772 ft 455 kts 56°
2026-04-21 08:03 23.39538 113.89523 20148 ft 457 kts 56°
2026-04-21 08:04 23.41245 113.92452 20533 ft 460 kts 56°
2026-04-21 08:04 23.42961 113.95397 20931 ft 462 kts 56°
2026-04-21 08:04 23.44688 113.98360 21316 ft 464 kts 56°
2026-04-21 08:04 23.46422 114.01338 21729 ft 467 kts 56°
2026-04-21 08:05 23.48165 114.04330 22154 ft 469 kts 55°
2026-04-21 08:05 23.49912 114.07334 22572 ft 471 kts 56°
2026-04-21 08:05 23.51731 114.10320 22917 ft 473 kts 51°
2026-04-21 08:05 23.53941 114.12968 23244 ft 473 kts 39°
2026-04-21 08:06 23.56584 114.15090 23547 ft 471 kts 27°
2026-04-21 08:06 23.59501 114.16704 23838 ft 470 kts 22°
2026-04-21 08:06 23.62476 114.18205 24099 ft 472 kts 21°
2026-04-21 08:06 23.65464 114.19713 24365 ft 475 kts 21°
2026-04-21 08:07 23.68419 114.21222 24458 ft 464 kts 22°
2026-04-21 08:07 23.71331 114.22724 24460 ft 463 kts 22°
2026-04-21 08:07 23.74243 114.24226 24452 ft 462 kts 22°
2026-04-21 08:07 23.77153 114.25730 24448 ft 462 kts 22°
2026-04-21 08:08 23.80058 114.27235 24447 ft 463 kts 22°
2026-04-21 08:08 23.82876 114.28955 24442 ft 466 kts 31°
2026-04-21 08:08 23.85510 114.31028 24446 ft 467 kts 33°
2026-04-21 08:08 23.88108 114.33164 24451 ft 468 kts 34°
2026-04-21 08:09 23.90705 114.35310 24449 ft 467 kts 34°
2026-04-21 08:09 23.93304 114.37446 24453 ft 468 kts 33°
2026-04-21 08:09 23.95907 114.39581 24445 ft 469 kts 33°
2026-04-21 08:09 23.98517 114.41720 24445 ft 468 kts 33°
2026-04-21 08:10 24.01125 114.43857 24446 ft 469 kts 33°
2026-04-21 08:10 24.03737 114.45998 24446 ft 469 kts 33°
2026-04-21 08:10 24.06351 114.48141 24446 ft 469 kts 33°
2026-04-21 08:10 24.08966 114.50287 24445 ft 469 kts 34°
2026-04-21 08:11 24.11579 114.52432 24445 ft 471 kts 34°
2026-04-21 08:11 24.14220 114.54603 24451 ft 477 kts 34°
2026-04-21 08:11 24.16872 114.56784 24465 ft 477 kts 33°
2026-04-21 08:11 24.19530 114.58969 24455 ft 478 kts 33°
2026-04-21 08:12 24.22188 114.61156 24450 ft 479 kts 34°
2026-04-21 08:12 24.24847 114.63348 24451 ft 478 kts 33°
2026-04-21 08:12 24.27497 114.65548 24448 ft 477 kts 33°
2026-04-21 08:12 24.30152 114.67733 24448 ft 478 kts 33°
2026-04-21 08:13 24.32808 114.69917 24460 ft 476 kts 33°
2026-04-21 08:13 24.35449 114.72092 24455 ft 473 kts 33°
2026-04-21 08:13 24.38040 114.74232 24448 ft 472 kts 33°
2026-04-21 08:13 24.40662 114.76402 24443 ft 472 kts 33°
2026-04-21 08:14 24.43289 114.78571 24451 ft 473 kts 34°
2026-04-21 08:14 24.45920 114.80749 24451 ft 473 kts 33°
2026-04-21 08:14 24.48549 114.82925 24448 ft 473 kts 33°
2026-04-21 08:14 24.51171 114.85110 24444 ft 474 kts 34°
2026-04-21 08:15 24.53803 114.87295 24444 ft 474 kts 33°
2026-04-21 08:15 24.56430 114.89476 24447 ft 473 kts 33°
2026-04-21 08:15 24.59097 114.91583 24439 ft 471 kts 28°
2026-04-21 08:15 24.61994 114.93209 24438 ft 465 kts 17°
2026-04-21 08:16 24.65076 114.94195 24440 ft 460 kts
2026-04-21 08:16 24.68203 114.94945 24449 ft 459 kts
2026-04-21 08:16 24.71325 114.95682 24443 ft 459 kts
2026-04-21 08:16 24.74442 114.96437 24438 ft 459 kts
2026-04-21 08:17 24.77563 114.97210 24438 ft 459 kts
2026-04-21 08:17 24.80680 114.97974 24432 ft 459 kts
2026-04-21 08:17 24.83799 114.98729 24433 ft 459 kts
2026-04-21 08:17 24.86922 114.99482 24437 ft 459 kts
2026-04-21 08:18 24.90037 115.00234 24448 ft 458 kts
2026-04-21 08:18 24.93147 115.00987 24450 ft 458 kts
2026-04-21 08:18 24.96263 115.01747 24434 ft 459 kts
2026-04-21 08:18 24.99387 115.02514 24419 ft 460 kts
2026-04-21 08:19 25.02509 115.03281 24410 ft 460 kts
2026-04-21 08:19 25.05634 115.04052 24410 ft 460 kts
2026-04-21 08:19 25.08755 115.04814 24423 ft 459 kts
2026-04-21 08:19 25.11880 115.05570 24419 ft 460 kts
2026-04-21 08:20 25.15006 115.06339 24423 ft 460 kts
2026-04-21 08:20 25.18129 115.07101 24424 ft 460 kts
2026-04-21 08:20 25.21265 115.07877 24426 ft 465 kts
2026-04-21 08:20 25.24429 115.08657 24435 ft 466 kts
2026-04-21 08:21 25.27595 115.09433 24429 ft 466 kts
2026-04-21 08:21 25.30762 115.10148 24440 ft 463 kts
2026-04-21 08:21 25.33905 115.10346 24419 ft 455 kts 352°
2026-04-21 08:21 25.37003 115.09827 24411 ft 448 kts 340°
2026-04-21 08:22 25.39904 115.08648 24406 ft 442 kts 331°
2026-04-21 08:22 25.42682 115.07202 24409 ft 442 kts 330°
2026-04-21 08:22 25.45470 115.05722 24419 ft 447 kts 330°
2026-04-21 08:22 25.48287 115.04251 24422 ft 448 kts 330°
2026-04-21 08:23 25.51111 115.02792 24421 ft 448 kts 330°
2026-04-21 08:23 25.53939 115.01334 24423 ft 447 kts 330°
2026-04-21 08:23 25.56756 114.99882 24405 ft 448 kts 330°
2026-04-21 08:23 25.59612 114.98404 24417 ft 458 kts 330°
2026-04-21 08:24 25.62529 114.96898 24410 ft 466 kts 330°
2026-04-21 08:24 25.65494 114.95375 24418 ft 474 kts 330°
2026-04-21 08:24 25.68503 114.93825 24417 ft 479 kts 330°
2026-04-21 08:24 25.71527 114.92268 24420 ft 479 kts 330°
2026-04-21 08:25 25.74551 114.90720 24404 ft 479 kts 331°
2026-04-21 08:25 25.77673 114.89404 24394 ft 485 kts 340°
2026-04-21 08:25 25.81034 114.88808 24404 ft 494 kts 353°
2026-04-21 08:25 25.84492 114.89084 24417 ft 506 kts
2026-04-21 08:26 25.87895 114.90188 24418 ft 512 kts 15°
2026-04-21 08:26 25.91247 114.91533 24411 ft 513 kts 15°
2026-04-21 08:26 25.94597 114.92889 24412 ft 513 kts 15°
2026-04-21 08:26 25.97956 114.94230 24408 ft 513 kts 15°
2026-04-21 08:27 26.01316 114.95558 24407 ft 512 kts 15°
2026-04-21 08:27 26.04671 114.96881 24410 ft 512 kts 15°
2026-04-21 08:27 26.08031 114.98204 24408 ft 512 kts 15°
2026-04-21 08:27 26.11392 114.99532 24408 ft 512 kts 15°
2026-04-21 08:28 26.13614 115.00411 24412 ft 512 kts 15°
2026-04-21 08:28 26.18103 115.02185 24408 ft 513 kts 15°
2026-04-21 08:28 26.21463 115.03514 24411 ft 512 kts 15°
2026-04-21 08:28 26.24814 115.04845 24418 ft 511 kts 15°
2026-04-21 08:29 26.27036 115.05725 24416 ft 511 kts 15°
2026-04-21 08:29 26.31522 115.07497 24407 ft 511 kts 15°
2026-04-21 08:29 26.33741 115.08377 24430 ft 511 kts 15°
2026-04-21 08:29 26.38238 115.10161 24455 ft 514 kts 15°
2026-04-21 08:30 26.40474 115.11049 24437 ft 515 kts 15°
2026-04-21 08:30 26.44944 115.12822 24425 ft 516 kts 15°
2026-04-21 08:30 26.48319 115.14163 24426 ft 515 kts 15°
2026-04-21 08:30 26.50597 115.15070 24423 ft 515 kts 15°
2026-04-21 08:31 26.53970 115.16413 24410 ft 515 kts 15°
2026-04-21 08:31 26.57346 115.17755 24418 ft 514 kts 15°
2026-04-21 08:31 26.60718 115.19100 24434 ft 515 kts 15°
2026-04-21 08:31 26.65200 115.20886 24438 ft 516 kts 15°
2026-04-21 08:32 26.67484 115.21796 24433 ft 516 kts 15°
2026-04-21 08:32 26.70866 115.23146 24429 ft 516 kts 15°
2026-04-21 08:32 26.74248 115.24499 24428 ft 516 kts 15°
2026-04-21 08:32 26.77630 115.25852 24428 ft 516 kts 15°
2026-04-21 08:33 26.81014 115.27207 24440 ft 516 kts 15°
2026-04-21 08:33 26.84394 115.28551 24437 ft 516 kts 15°
2026-04-21 08:33 26.87775 115.29892 24443 ft 515 kts 15°
2026-04-21 08:33 26.91151 115.31235 24438 ft 515 kts 15°
2026-04-21 08:34 26.94530 115.32580 24438 ft 515 kts 15°
2026-04-21 08:34 26.97913 115.33928 24436 ft 517 kts 15°
2026-04-21 08:34 27.01251 115.35261 24436 ft 517 kts 15°
2026-04-21 08:34 27.04642 115.36620 24437 ft 517 kts 15°
2026-04-21 08:35 27.08029 115.37971 24441 ft 517 kts 15°
2026-04-21 08:35 27.11418 115.39321 24458 ft 517 kts 15°
2026-04-21 08:35 27.15497 115.40950 24450 ft 517 kts 15°
2026-04-21 08:35 27.18881 115.42309 24447 ft 517 kts 15°
2026-04-21 08:36 27.22271 115.43671 24441 ft 517 kts 15°
2026-04-21 08:36 27.25658 115.45026 24448 ft 517 kts 15°
2026-04-21 08:36 27.29050 115.46383 24436 ft 517 kts 15°
2026-04-21 08:36 27.32437 115.47741 24446 ft 517 kts 15°
2026-04-21 08:37 27.35824 115.49100 24437 ft 517 kts 15°
2026-04-21 08:37 27.39215 115.50465 24452 ft 518 kts 16°
2026-04-21 08:37 27.42605 115.51830 24447 ft 518 kts 15°
2026-04-21 08:37 27.45994 115.53191 24446 ft 517 kts 15°
2026-04-21 08:38 27.49380 115.54552 24450 ft 517 kts 16°
2026-04-21 08:38 27.52770 115.55920 24452 ft 517 kts 16°
2026-04-21 08:38 27.56163 115.57287 24457 ft 517 kts 15°
2026-04-21 08:38 27.59553 115.58651 24471 ft 517 kts 15°
2026-04-21 08:39 27.62935 115.60016 24482 ft 515 kts 15°
2026-04-21 08:39 27.66303 115.61376 24457 ft 514 kts 16°
2026-04-21 08:39 27.69679 115.62736 24441 ft 516 kts 16°
2026-04-21 08:39 27.73062 115.64100 24443 ft 516 kts 16°
2026-04-21 08:40 27.76449 115.65475 24448 ft 518 kts 16°
2026-04-21 08:40 27.79841 115.66842 24448 ft 518 kts 15°
2026-04-21 08:40 27.83240 115.68199 24454 ft 518 kts 15°
2026-04-21 08:40 27.86634 115.69554 24465 ft 517 kts 16°
2026-04-21 08:41 27.90026 115.70915 24463 ft 516 kts 16°
2026-04-21 08:41 27.93412 115.72272 24459 ft 516 kts 16°
2026-04-21 08:41 27.96796 115.73628 24459 ft 516 kts 16°
2026-04-21 08:41 28.00136 115.74973 24460 ft 516 kts 16°
2026-04-21 08:42 28.03565 115.76357 24456 ft 516 kts 16°
2026-04-21 08:42 28.06945 115.77729 24457 ft 516 kts 16°
2026-04-21 08:42 28.10325 115.79105 24459 ft 516 kts 16°
2026-04-21 08:42 28.13709 115.80478 24464 ft 517 kts 16°
2026-04-21 08:43 28.17093 115.81848 24460 ft 517 kts 16°
2026-04-21 08:43 28.20432 115.83195 24459 ft 517 kts 16°
2026-04-21 08:43 28.23818 115.84574 24459 ft 517 kts 16°
2026-04-21 08:43 28.27198 115.85960 24480 ft 517 kts 16°
2026-04-21 08:44 28.30582 115.87334 24484 ft 516 kts 16°
2026-04-21 08:44 28.33973 115.88720 24463 ft 518 kts 17°
2026-04-21 08:44 28.37355 115.90112 24445 ft 517 kts 16°
2026-04-21 08:44 28.40751 115.91453 24445 ft 515 kts 13°
2026-04-21 08:45 28.44241 115.92232 24446 ft 508 kts
2026-04-21 08:45 28.47751 115.92288 24459 ft 504 kts 354°
2026-04-21 08:45 28.51253 115.92190 24462 ft 503 kts 354°
2026-04-21 08:45 28.54754 115.92085 24460 ft 503 kts 354°
2026-04-21 08:46 28.58252 115.91994 24459 ft 503 kts 354°
2026-04-21 08:46 28.61754 115.91910 24460 ft 503 kts 354°
2026-04-21 08:46 28.65256 115.91831 24471 ft 503 kts 354°
2026-04-21 08:46 28.68653 115.91756 24468 ft 503 kts 354°
2026-04-21 08:47 28.72256 115.91676 24457 ft 503 kts 354°
2026-04-21 08:47 28.75752 115.91599 24457 ft 503 kts 354°
2026-04-21 08:47 28.78821 115.91533 24464 ft 503 kts 354°
2026-04-21 08:47 28.82326 115.91587 24460 ft 508 kts
2026-04-21 08:48 28.85815 115.92360 24454 ft 516 kts 13°
2026-04-21 08:48 28.88038 115.93358 24476 ft 521 kts 22°
2026-04-21 08:48 28.91121 115.95581 24462 ft 530 kts 36°
2026-04-21 08:48 28.94474 115.99650 24471 ft 534 kts 50°
2026-04-21 08:49 28.96747 116.02996 24468 ft 533 kts 51°
2026-04-21 08:49 28.99017 116.06348 24463 ft 533 kts 51°
2026-04-21 08:49 29.01295 116.09692 24461 ft 533 kts 50°
2026-04-21 08:49 29.03584 116.13028 24461 ft 533 kts 50°
2026-04-21 08:50 29.05873 116.16361 24463 ft 533 kts 50°
2026-04-21 08:50 29.07417 116.18614 24464 ft 533 kts 50°
2026-04-21 08:50 29.10426 116.23060 24468 ft 534 kts 51°
2026-04-21 08:50 29.11962 116.25329 24466 ft 534 kts 51°
2026-04-21 08:51 29.14995 116.29774 24465 ft 535 kts 50°
2026-04-21 08:51 29.16542 116.32040 24465 ft 535 kts 50°
2026-04-21 08:51 29.18837 116.35397 24464 ft 535 kts 50°
2026-04-21 08:51 29.21134 116.38754 24461 ft 535 kts 50°
2026-04-21 08:52 29.23427 116.42115 24462 ft 536 kts 50°
2026-04-21 08:52 29.25715 116.45477 24461 ft 536 kts 50°
2026-04-21 08:52 29.28001 116.48849 24462 ft 536 kts 50°
2026-04-21 08:52 29.30259 116.52168 24468 ft 535 kts 50°
2026-04-21 08:53 29.32580 116.55568 24465 ft 535 kts 50°
2026-04-21 08:53 29.34836 116.58883 24466 ft 534 kts 50°
2026-04-21 08:53 29.37119 116.62249 24472 ft 534 kts 50°
2026-04-21 08:53 29.39401 116.65612 24468 ft 535 kts 50°
2026-04-21 08:54 29.41687 116.68978 24459 ft 535 kts 50°
2026-04-21 08:54 29.43969 116.72346 24456 ft 535 kts 50°
2026-04-21 08:54 29.46253 116.75721 24460 ft 535 kts 50°
2026-04-21 08:54 29.48530 116.79091 24478 ft 535 kts 50°
2026-04-21 08:55 29.50806 116.82466 24467 ft 535 kts 50°
2026-04-21 08:55 29.53082 116.85842 24470 ft 535 kts 50°
2026-04-21 08:55 29.55356 116.89217 24463 ft 533 kts 51°
2026-04-21 08:55 29.57621 116.92578 24465 ft 532 kts 51°
2026-04-21 08:56 29.59891 116.95940 24463 ft 532 kts 51°
2026-04-21 08:56 29.62164 116.99295 24465 ft 532 kts 50°
2026-04-21 08:56 29.64433 117.02653 24466 ft 532 kts 51°
2026-04-21 08:56 29.66695 117.06024 24462 ft 532 kts 51°
2026-04-21 08:57 29.68957 117.09394 24465 ft 532 kts 51°
2026-04-21 08:57 29.71224 117.12759 24472 ft 532 kts 50°
2026-04-21 08:57 29.73766 117.15823 24465 ft 529 kts 38°
2026-04-21 08:57 29.76814 117.18144 24462 ft 522 kts 24°
2026-04-21 08:58 29.80177 117.19587 24472 ft 514 kts 10°
2026-04-21 08:58 29.83681 117.20205 24478 ft 507 kts 359°
2026-04-21 08:58 29.87202 117.20383 24477 ft 506 kts 358°
2026-04-21 08:58 29.90725 117.20537 24476 ft 507 kts 357°
2026-04-21 08:59 29.94253 117.20701 24450 ft 507 kts 357°
2026-04-21 08:59 29.97775 117.20876 24450 ft 507 kts 358°
2026-04-21 08:59 30.01294 117.21059 24455 ft 506 kts 358°
2026-04-21 08:59 30.04824 117.21235 24468 ft 508 kts 358°
2026-04-21 09:00 30.08356 117.21413 24500 ft 509 kts 358°
2026-04-21 09:00 30.11890 117.21599 24483 ft 508 kts 358°
2026-04-21 09:00 30.15420 117.21783 24483 ft 508 kts 358°
2026-04-21 09:00 30.18953 117.21964 24487 ft 509 kts 358°
2026-04-21 09:01 30.22489 117.22136 24483 ft 509 kts 358°
2026-04-21 09:01 30.26028 117.22315 24478 ft 509 kts 358°
2026-04-21 09:01 30.29564 117.22493 24479 ft 509 kts 358°
2026-04-21 09:01 30.33096 117.22674 24476 ft 508 kts 358°
2026-04-21 09:02 30.36633 117.22835 24478 ft 508 kts 357°
2026-04-21 09:02 30.40169 117.23001 24475 ft 509 kts 358°
2026-04-21 09:02 30.43695 117.23175 24493 ft 506 kts 358°
2026-04-21 09:03 30.50724 117.23536 24486 ft 505 kts 358°
2026-04-21 09:03 30.54233 117.23716 24484 ft 505 kts 358°
2026-04-21 09:03 30.57744 117.23892 24480 ft 505 kts 358°
2026-04-21 09:03 30.61207 117.24072 24481 ft 505 kts 358°
2026-04-21 09:04 30.64720 117.24255 24483 ft 505 kts 358°
2026-04-21 09:04 30.68230 117.24437 24487 ft 505 kts 358°
2026-04-21 09:04 30.71739 117.24621 24485 ft 505 kts 358°
2026-04-21 09:04 30.75253 117.24804 24482 ft 505 kts 358°
2026-04-21 09:05 30.78765 117.24973 24482 ft 505 kts 358°
2026-04-21 09:05 30.82274 117.25157 24484 ft 505 kts 358°
2026-04-21 09:05 30.85791 117.25354 24482 ft 505 kts 358°
2026-04-21 09:05 30.89299 117.25551 24486 ft 505 kts 358°
2026-04-21 09:06 30.92812 117.25751 24487 ft 506 kts 359°
2026-04-21 09:06 30.96326 117.25954 24489 ft 505 kts 359°
2026-04-21 09:06 30.99840 117.26149 24492 ft 505 kts 358°
2026-04-21 09:06 31.03351 117.26342 24487 ft 505 kts 358°
2026-04-21 09:07 31.06863 117.26531 24483 ft 505 kts 358°
2026-04-21 09:07 31.10374 117.26725 24489 ft 505 kts 358°
2026-04-21 09:07 31.13886 117.26925 24487 ft 505 kts 359°
2026-04-21 09:07 31.17398 117.27122 24494 ft 505 kts 358°
2026-04-21 09:08 31.20911 117.27317 24495 ft 506 kts 358°
2026-04-21 09:08 31.24428 117.27515 24492 ft 506 kts 358°
2026-04-21 09:08 31.27938 117.27692 24493 ft 505 kts 358°
2026-04-21 09:08 31.31452 117.27848 24493 ft 505 kts 358°
2026-04-21 09:09 31.34966 117.28010 24496 ft 505 kts 358°
2026-04-21 09:09 31.38481 117.28175 24496 ft 505 kts 358°
2026-04-21 09:09 31.41966 117.28340 24505 ft 492 kts 358°
2026-04-21 09:09 31.45306 117.28506 24492 ft 471 kts 358°
2026-04-21 09:10 31.48561 117.28659 24491 ft 467 kts 358°
2026-04-21 09:10 31.51805 117.28805 24496 ft 467 kts 357°
2026-04-21 09:10 31.55052 117.28953 24501 ft 467 kts 358°
2026-04-21 09:10 31.58298 117.29113 24503 ft 467 kts 358°
2026-04-21 09:11 31.61508 117.29370 24272 ft 463 kts
2026-04-21 09:11 31.64667 117.30241 23935 ft 470 kts 15°
2026-04-21 09:11 31.67611 117.31912 23382 ft 472 kts 29°
2026-04-21 09:11 31.70173 117.34326 22682 ft 476 kts 43°
2026-04-21 09:12 31.72229 117.37372 21983 ft 477 kts 57°
2026-04-21 09:12 31.73661 117.40881 21266 ft 477 kts 71°
2026-04-21 09:12 31.74388 117.44616 20593 ft 475 kts 84°
2026-04-21 09:12 31.74409 117.48466 19923 ft 470 kts 98°
2026-04-21 09:13 31.73734 117.52182 19293 ft 463 kts 111°
2026-04-21 09:13 31.72421 117.55587 18684 ft 454 kts 124°
2026-04-21 09:13 31.70558 117.58535 18056 ft 446 kts 137°
2026-04-21 09:13 31.68272 117.60918 17405 ft 433 kts 148°
2026-04-21 09:14 31.65853 117.62979 16764 ft 429 kts 143°
2026-04-21 09:14 31.63910 117.65634 16146 ft 431 kts 126°
2026-04-21 09:14 31.62694 117.68828 15581 ft 430 kts 108°
2026-04-21 09:14 31.62260 117.72271 15038 ft 426 kts 92°
2026-04-21 09:15 31.62486 117.75721 14475 ft 422 kts 83°
2026-04-21 09:15 31.62885 117.79113 13925 ft 417 kts 82°
2026-04-21 09:15 31.63265 117.82463 13362 ft 412 kts 83°
2026-04-21 09:15 31.63616 117.85780 12792 ft 407 kts 84°
2026-04-21 09:16 31.63942 117.89052 12237 ft 401 kts 84°
2026-04-21 09:16 31.64259 117.92281 11702 ft 396 kts 84°
2026-04-21 09:16 31.64567 117.95459 11273 ft 387 kts 84°
2026-04-21 09:16 31.64864 117.98550 11020 ft 374 kts 84°
2026-04-21 09:17 31.65149 118.01529 10820 ft 361 kts 85°
2026-04-21 09:17 31.65424 118.04407 10652 ft 348 kts 85°
2026-04-21 09:17 31.65690 118.07181 10500 ft 336 kts 85°
2026-04-21 09:17 31.65945 118.09864 10350 ft 325 kts 85°
2026-04-21 09:18 31.66191 118.12455 10213 ft 314 kts 85°
2026-04-21 09:18 31.66428 118.14983 9881 ft 311 kts 86°
2026-04-21 09:18 31.66646 118.17497 9469 ft 309 kts 89°
2026-04-21 09:18 31.66697 118.20006 9039 ft 307 kts 92°
2026-04-21 09:19 31.66700 118.22492 8715 ft 303 kts 92°
2026-04-21 09:19 31.66702 118.24935 8403 ft 297 kts 92°
2026-04-21 09:19 31.66707 118.27360 8001 ft 297 kts 92°
2026-04-21 09:19 31.66711 118.29777 7662 ft 294 kts 92°
2026-04-21 09:20 31.66717 118.32172 7300 ft 293 kts 92°
2026-04-21 09:20 31.66724 118.34540 7033 ft 287 kts 92°
2026-04-21 09:20 31.66731 118.36835 6964 ft 273 kts 92°
2026-04-21 09:20 31.66742 118.38998 7007 ft 259 kts 94°
2026-04-21 09:21 31.66734 118.41110 7027 ft 258 kts 97°
2026-04-21 09:21 31.66361 118.43121 7014 ft 251 kts 117°
2026-04-21 09:21 31.65636 118.44973 7021 ft 250 kts 120°
2026-04-21 09:21 31.64895 118.46790 6986 ft 240 kts 120°
2026-04-21 09:22 31.64208 118.48505 6894 ft 225 kts 120°
2026-04-21 09:22 31.63562 118.50126 6728 ft 214 kts 120°
2026-04-21 09:22 31.62949 118.51667 6555 ft 204 kts 120°
2026-04-21 09:22 31.62355 118.53159 6274 ft 200 kts 121°
2026-04-21 09:23 31.61775 118.54628 5946 ft 197 kts 121°
2026-04-21 09:23 31.61208 118.56073 5606 ft 194 kts 121°
2026-04-21 09:23 31.60647 118.57504 5288 ft 192 kts 121°
2026-04-21 09:23 31.60114 118.58951 5110 ft 196 kts 113°
2026-04-21 09:24 31.60106 118.60554 4963 ft 205 kts 77°
2026-04-21 09:24 31.60636 118.62106 4783 ft 206 kts 71°
2026-04-21 09:24 31.61212 118.63646 4479 ft 204 kts 72°
2026-04-21 09:24 31.61744 118.65152 4163 ft 201 kts 74°
2026-04-21 09:25 31.62262 118.66687 3826 ft 198 kts 76°
2026-04-21 09:25 31.62767 118.68244 3554 ft 206 kts 76°
2026-04-21 09:25 31.63306 118.69779 3374 ft 197 kts 70°
2026-04-21 09:25 31.64011 118.71135 3134 ft 194 kts 60°
2026-04-21 09:26 31.64727 118.72410 2812 ft 186 kts 65°
2026-04-21 09:26 31.65391 118.73636 2684 ft 170 kts 67°
2026-04-21 09:26 31.65997 118.74768 2468 ft 158 kts 68°
2026-04-21 09:26 31.66569 118.75841 2166 ft 152 kts 68°
2026-04-21 09:27 31.67117 118.76869 1868 ft 146 kts 68°
2026-04-21 09:27 31.67645 118.77860 1678 ft 141 kts 66°
2026-04-21 09:27 31.68157 118.78819 1422 ft 131 kts 65°
2026-04-21 09:27 31.68628 118.79705 1283 ft 127 kts 66°
2026-04-21 09:28 31.69090 118.80573 962 ft 125 kts 64°
2026-04-21 09:28 31.69556 118.81447 739 ft 128 kts 63°
2026-04-21 09:28 31.70032 118.82341 573 ft 130 kts 62°
2026-04-21 09:28 31.70520 118.83256 399 ft 131 kts 61°
2026-04-21 09:29 31.71008 118.84171 245 ft 133 kts 61°
2026-04-21 09:29 31.71495 118.85079 88 ft 130 kts 62°
2026-04-21 09:29 31.71939 118.85918 62 ft 103 kts 57°
2026-04-21 09:29 31.72211 118.86427 59 ft 44 kts 57°
2026-04-21 09:30 31.72277 118.86547 59 ft 0 kts 52°
2026-04-21 09:30 31.72298 118.86576 63 ft 7 kts 47°
2026-04-21 09:30 31.72348 118.86629 55 ft 12 kts 38°
2026-04-21 09:30 31.72430 118.86688 60 ft 15 kts 27°
2026-04-21 09:31 31.72493 118.86728 62 ft 9 kts 23°
2026-04-21 09:31 31.72555 118.86750 61 ft 4 kts 351°
2026-04-21 09:31 31.72589 118.86729 55 ft 7 kts 328°
2026-04-21 09:31 31.72633 118.86697 61 ft 9 kts 328°
2026-04-21 09:32 31.72691 118.86653 62 ft 8 kts 328°
2026-04-21 09:32 31.72739 118.86669 55 ft 9 kts 54°
2026-04-21 09:32 31.72776 118.86742 56 ft 11 kts 58°
2026-04-21 09:32 31.72821 118.86825 62 ft 8 kts 58°
2026-04-21 09:33 31.72854 118.86887 57 ft 10 kts 58°
2026-04-21 09:33 31.72872 118.86922 59 ft 0 kts 58°
2026-04-21 09:34 31.72874 118.86923 59 ft 1 kts 45°
2026-04-21 09:34 31.72895 118.86930 57 ft 5 kts 358°
2026-04-21 09:34 31.72934 118.86908 61 ft 4 kts 327°
2026-04-21 09:35 31.72944 118.86901 60 ft 0 kts 327°
2026-04-21 09:35 31.72952 118.86895 62 ft 2 kts 327°
2026-04-21 09:35 31.72956 118.86892 57 ft 0 kts 327°